Regional Weather Roundup
Issued by NWS

Home | Current Version | Previous Version | Graphics & Text | Print | Product List | Glossary On
Versions: 1 2 3 4 5 6 7 8 9 10 11 12 13 14 15 16 17 18 19 20 21 22 23 24 25 26 27 28
000
ASUS45 KCYS 250710
RWRWY

WYOMING REGIONAL WEATHER ROUNDUP
NATIONAL WEATHER SERVICE CHEYENNE WY
100 AM MDT WED MAY 25 2016

NOTE:  "FAIR" INDICATES FEW OR NO CLOUDS BELOW 12,000 FEET
WITH NO SIGNIFICANT WEATHER AND/OR OBSTRUCTIONS TO VISIBILITY.

WYZ001-250800-
YELLOWSTONE NATIONAL PARK

CITY           SKY/WX    TMP DP  RH WIND       PRES   REMARKS
LK YELLOWSTONE   N/A     33  31  92 CALM      30.02F
W YELLOWSTONE  NOT AVBL

$$
WYZ002>013-054>058-071-098>099-250800-
NORTHERN WYOMING

CITY           SKY/WX    TMP DP  RH WIND       PRES   REMARKS
JACKSON        CLOUDY    39  39 100 CALM      29.99S
CODY           MOCLDY    46  43  87 SE7       29.91F
GREYBULL       CLOUDY    52  48  86 W7        29.89R
WORLAND        CLOUDY    48  46  93 S5        29.91S
SHERIDAN       LGT RAIN  49  45  86 NW13      29.91R
BUFFALO        CLOUDY    47  43  86 N14G22    29.92S
GILLETTE       MOCLDY    44  43  96 CALM      29.89R
HULETT         FAIR      48  46  93 SE7       29.87R
NEWCASTLE      FAIR      48  43  81 SE3       29.88R

$$
WYZ014>020-022>026-101>103-250800-
CENTRAL WYOMING

CITY           SKY/WX    TMP DP  RH WIND       PRES   REMARKS
BIG PINEY      MOCLDY    35  33  92 N6        30.01S WCI  30
PINEDALE       PTSUNNY   36  36 100 NW3       30.01S
DUBOIS         PTSUNNY   39  30  70 NW14      29.95F WCI  31
LANDER         FAIR      44  38  79 CALM      29.90F
RIVERTON       FAIR      42  38  85 NE6       29.92F
CASPER         FAIR      43  37  79 CALM      29.91F
DOUGLAS        FAIR      45  39  79 S6        29.90F

$$
WYZ021-027>030-104>119-250800-
SOUTHERN WYOMING

CITY           SKY/WX    TMP DP  RH WIND       PRES   REMARKS
EVANSTON       CLOUDY    38  34  85 SW8       30.02R WCI  32
KEMMERER         N/A     36  34  93 CALM      30.02S
FORT BRIDGER   SUNNY     37  37 100 MISG      30.04S
ROCK SPRINGS   FAIR      39  35  86 S6        30.02R WCI  35
DIXON          LGT RAIN  47  37  67 N9        30.06S
RAWLINS        FAIR      43  36  76 SW9       30.02R
SARATOGA       CLOUDY    45  36  70 SW5       30.04R
LARAMIE        FAIR      39  32  76 NE6       30.00S WCI  35
CHEYENNE       FAIR      51  34  52 NW14      29.95R
TORRINGTON     FAIR      50  44  80 N6        29.90S
PINE BLUFFS    FAIR      45  43  93 CALM      29.92R

$$




USA.gov is the U.S. government's official web portal to all federal, state and local government web resources and services.